Location: Newark
(35.7219°N, 0.3536°E)
Time: 15:25:19
(UTC+00:00)

ISS - Pass Details

Date: 28 July 2019
Orbit: 410 x 420 km, 51.6° (Epoch: 23 August)

Event Time Altitude Azimuth Distance (km) Brightness Sun altitude
Rises 22:15:48 0° 323° (NW) 2,367 1.2 -29.6°
Reaches altitude 10° 22:18:18 10° 341° (NNW) 1,498 -0.1 -29.8°
Enters shadow 22:19:04 14° 351° (N) 1,285 -0.6 -29.9°
